Dewpoint
1 2 2 2 3 4 4 5 6 7 7 7 6 5 4 4 2 4 3 -3 -2 -4 -3 -4 -4 -6 -6 -6 -5 -5 -3 -3 -7 -7 -6 -7 -5 -4 -1 -1 3 7 8 9 12
0 1 2 2 3 4 5 6 7 8 7 7 6 5 4 3 2 4 -0 -1 -2 -3 -1 -3 -3 -4 -5 -6 -5 -5 -2 -4 -7 -9 -6 -7 -7 -4 -1 2 4 6 9 9 9
1 1 3 5 5 6 7 7 8 8 7 6 6 5 4 3 3 0 -0 2 2 2 -0 -3 -3 -3 -4 -5 -6 -6 -4 -6 -5 -6 -7 -7 -7 -4 -2 0 3 5 7 7 6
6 5 5 6 7 8 8 8 8 8 7 7 6 5 4 4 5 2 3 3 2 2 -1 -3 -3 -3 -3 -4 -6 -5 -6 -7 -5 -7 -7 -8 -8 -7 -1 -1 2 5 5 5 4
7 7 7 7 7 8 8 8 8 7 7 7 6 5 5 7 5 3 3 3 2 -5 -4 -3 -3 -2 -2 -4 -5 -5 -6 -7 -7 -6 -7 -7 -8 -7 0 2 3 3 3 3 2
9 9 8 8 8 8 8 7 8 7 7 6 6 6 8 6 4 4 2 2 2 -3 -3 -3 -3 -4 -4 -4 -3 -5 -5 -6 -7 -7 -7 -7 -7 -4 0 1 1 2 2 1 1
10 9 10 9 9 9 9 8 7 7 7 7 8 8 8 7 5 5 4 3 2 -1 -2 -3 -5 -4 -3 -2 -3 -4 -4 -5 -6 -7 -7 -7 -5 -4 -0 -0 -0 1 0 0 -1
9 9 9 10 10 9 8 8 8 9 8 8 8 8 8 3 5 5 4 3 3 3 -0 -2 -4 -4 -3 -3 -3 -3 -3 -2 -5 -6 -7 -7 -4 -5 -1 -1 -1 -0 -0 -1 -2
6 6 6 6 5 8 8 8 8 9 8 8 8 9 7 5 4 3 0 -1 -0 1 -2 -2 -4 -3 -2 -1 0 -1 1 -1 -2 -5 -6 -6 -5 -4 -1 -1 -1 -1 -1 -2 -2
-4 -3 -0 0 2 2 2 4 4 4 7 9 9 7 6 5 3 1 -2 -1 -0 -2 -2 -2 -3 -2 -1 -0 2 2 1 0 -0 -3 -5 -5 -5 -1 -1 -1 -2 -1 -1 -2 -2
-6 -7 -7 -9 -9 -9 -8 3 5 7 10 7 6 5 5 3 2 0 0 -1 -1 -2 -0 -1 -1 -0 -1 -1 -1 -1 0 -0 -1 -2 -4 -3 -4 -2 -1 -2 -2 -1 -1 -2 -2
-13 -9 -6 -7 -9 -10 -7 4 1 7 5 4 6 6 6 5 5 4 2 2 -1 0 -2 -1 0 -2 -3 -3 -2 -1 -0 0 -1 -3 -5 -4 -5 -6 -1 -1 -2 -2 -1 -2 -2
-10 -12 -5 0 -1 -7 -8 4 4 6 5 0 -1 0 2 2 3 3 3 2 1 1 1 1 -0 -3 -3 -3 -1 -1 -0 -1 -1 -2 -6 -6 -4 -5 -2 -2 -2 -2 -2 -2 -2
-6 -4 -2 1 -5 2 4 4 5 7 4 -7 -9 -5 -2 -2 -1 0 1 1 1 3 1 1 -1 -3 -2 -0 -3 -0 -4 -3 -2 -1 1 -6 -3 -6 -5 -1 -2 -3 -2 -2 -2
-5 1 4 1 5 4 6 4 6 7 1 -10 -5 -3 -1 0 0 -1 -1 -0 2 1 1 2 -2 -3 -3 -0 -2 -1 -4 -5 -4 -2 -1 -2 -2 -6 -8 -3 -1 -2 -2 -2 -2
-2 -2 5 3 3 6 5 6 6 3 3 -8 -3 -2 -1 -2 -1 -2 -1 -0 -0 -0 -1 -0 -2 -7 -3 -4 -3 -4 -3 -4 -4 -3 0 -2 -2 -3 -6 -7 -2 -2 -3 -2 -2
-1 -1 3 4 5 4 3 4 2 3 -10 -9 -9 -3 -3 -3 -2 -1 -0 0 2 2 2 -0 -0 -3 -6 -3 -4 -3 -2 1 2 1 1 -4 -3 -3 -6 -7 -4 -3 -3 -2 -2
-2 -1 0 4 4 4 4 5 4 -3 -6 -11 -8 -7 -1 1 -0 -2 1 1 -2 0 1 1 4 -1 -5 -3 -3 -1 -1 3 4 4 2 -3 -1 -4 -7 -7 -6 -5 -3 -2 -2
-3 -2 -1 1 2 2 4 6 2 -1 -5 -8 -8 -7 -7 -7 -2 -0 1 -0 -1 -2 3 0 -2 -7 -5 -5 -5 -3 -0 -3 1 1 3 0 -1 -4 -8 -6 -6 -6 -3 -2 -1
-1 1 0 -0 2 2 4 4 -1 -5 -5 -4 -4 -6 -1 -3 -3 -2 2 2 3 1 -2 1 3 -2 -3 -6 -6 -5 -5 1 1 5 5 1 0 0 -3 -5 -5 -5 -2 -1 -1
-0 1 0 1 1 2 3 3 -1 -3 -5 -4 -3 -2 -3 -3 -3 4 5 4 2 3 0 0 2 0 -5 -4 -3 -4 -3 -2 -2 1 3 3 1 -4 -2 -3 -4 -4 -3 -1 -1
1 2 1 2 2 1 2 -2 -4 -4 -6 -5 -3 -2 0 -0 1 1 0 1 5 4 4 2 6 5 1 -5 -6 -4 -2 -2 3 2 2 3 2 -3 -3 -3 -4 -5 -4 -2 -1
-0 0 1 0 2 2 -2 -2 -2 -3 -4 -6 -4 -4 -4 -2 1 -0 -0 -3 1 5 5 4 7 9 4 1 -1 -4 -5 -5 -1 3 3 5 2 -4 -3 -4 -4 -3 -4 -3 -2
-0 0 0 1 1 1 -0 1 -0 -6 -6 -6 -5 -6 -4 -1 -2 0 0 -3 -0 4 4 4 5 7 8 4 3 4 5 3 1 3 2 2 0 -2 -2 -3 -3 -4 -4 -3 -2
-2 -1 -4 1 0 -1 -2 -2 -1 0 -3 -5 -5 -5 -3 -0 1 1 0 -1 -3 3 2 3 6 4 4 3 0 0 0 4 5 5 3 1 -1 -3 -4 -3 -3 -5 -4 -2 -2
-1 -2 -5 -6 -7 -5 -3 -2 -5 -7 -6 -3 -5 -3 -0 2 -1 2 0 1 1 0 4 4 5 4 5 4 1 -0 -0 -0 0 1 1 5 3 -5 -8 -7 -3 -2 -1 -1 -3
-4 -4 -2 -4 -5 -5 -5 -6 -6 -7 -7 -8 -6 -1 1 1 -0 -5 -4 -2 1 3 4 4 4 6 6 -0 0 4 2 1 0 -0 0 3 0 -2 -2 -4 -4 -2 -3 -3 -3
Wind_Speed
9 8 8 8 8 9 9 10 11 13 14 16 18 19 19 21 19 14 9 7 16 11 9 16 13 11 12 15 12 12 9 13 19 10 11 17 11 11 12 16 14 10 20 26 22
11 10 10 9 9 9 10 11 12 14 15 18 20 20 20 22 23 17 9 10 10 10 9 12 13 11 14 15 9 8 10 18 14 4 16 16 14 10 10 14 15 18 19 23 22
12 11 11 11 10 11 11 12 13 15 17 19 21 23 21 22 20 2 4 12 19 14 13 13 14 14 17 17 13 14 13 17 11 16 7 15 15 17 15 13 18 21 22 21 20
13 12 13 13 12 13 12 14 14 16 18 20 22 24 22 12 8 6 13 17 20 13 9 13 13 16 15 15 16 14 16 16 19 3 5 8 13 9 9 10 26 23 23 21 19
16 15 15 15 15 15 15 15 16 17 19 20 23 24 24 12 14 13 17 16 13 9 11 11 13 14 15 15 16 7 14 16 13 3 7 13 10 12 15 15 22 23 21 20 18
18 17 18 18 17 17 19 18 19 19 21 21 22 24 14 17 9 10 12 11 10 9 11 10 12 13 11 15 14 14 13 17 9 11 12 12 9 14 18 17 19 21 21 19 17
21 21 21 21 19 18 19 21 22 22 21 22 20 20 18 26 17 17 15 14 11 9 9 8 8 9 11 13 11 19 12 15 16 17 16 14 16 16 24 21 20 20 19 18 18
11 12 16 18 18 19 20 21 22 23 22 21 19 19 13 18 18 18 15 13 12 12 12 11 10 14 16 13 16 12 16 16 18 20 21 18 18 20 30 26 22 21 20 19 18
24 21 22 22 23 22 23 23 23 22 20 19 20 8 23 9 10 7 7 8 7 8 9 9 9 14 14 11 11 14 15 18 20 22 17 20 17 8 29 27 24 23 21 21 20
22 23 24 21 22 23 24 22 23 27 23 17 16 10 19 12 11 5 5 5 6 6 8 10 7 9 9 11 13 13 18 17 17 12 18 19 17 17 25 25 26 24 24 23 21
13 16 17 21 20 21 19 15 14 12 7 15 10 13 15 6 6 10 11 9 9 11 11 15 8 11 14 15 19 19 21 18 16 20 19 15 17 20 26 26 24 27 26 25 22
12 13 14 16 17 16 14 7 7 9 14 21 26 28 32 28 27 21 15 13 13 14 14 14 16 14 15 17 17 18 19 20 19 19 10 14 17 18 23 24 28 29 29 29 26
11 11 11 10 10 10 12 12 9 11 11 26 30 32 40 30 34 36 26 26 20 19 19 17 17 6 4 13 17 17 17 18 19 20 14 9 17 18 21 28 28 28 29 30 30
12 10 11 9 5 2 9 7 5 7 7 13 23 30 33 32 33 36 33 33 28 24 23 21 22 21 20 17 16 17 16 17 18 17 14 14 12 17 19 23 20 26 29 31 32
14 12 13 11 5 3 3 2 4 1 8 8 5 3 9 19 8 13 29 33 29 28 23 22 20 22 23 22 18 19 15 10 16 14 17 21 13 12 15 20 21 21 28 29 31
14 15 13 11 11 3 6 6 4 4 10 6 6 7 7 11 21 15 4 13 30 27 29 28 31 23 19 18 19 14 14 11 15 12 16 17 16 16 15 16 22 22 27 28 30
14 15 15 14 6 8 10 7 3 9 5 13 20 10 13 14 15 17 19 15 12 16 22 26 29 25 18 15 15 16 11 6 9 10 13 14 15 16 10 8 21 21 28 31 29
16 17 17 18 14 9 10 5 10 10 26 22 14 23 1 12 17 16 17 18 17 22 13 17 20 26 23 23 18 21 16 9 9 12 14 17 19 17 5 12 12 20 34 34 32
15 14 19 19 20 12 7 9 11 17 19 18 20 23 24 22 18 18 19 20 21 18 20 12 24 20 26 26 21 22 19 17 16 18 11 11 16 4 6 9 6 7 27 33 33
8 10 18 16 15 16 6 14 23 21 23 20 24 18 17 20 21 20 10 13 17 18 17 17 20 18 17 14 23 21 15 14 11 13 18 16 15 11 10 14 10 7 19 28 31
9 6 7 19 18 12 9 13 20 34 27 18 21 23 25 24 20 13 8 16 19 16 16 13 13 7 4 10 17 12 16 16 10 12 9 9 8 6 11 7 10 9 14 23 27
7 4 5 14 11 5 11 20 28 27 28 23 21 23 22 22 23 22 24 16 10 19 8 11 7 13 22 10 10 13 12 15 5 12 7 9 17 3 7 4 14 16 19 24 27
6 7 7 9 5 9 18 22 29 25 23 26 24 22 21 22 21 20 21 24 13 5 5 8 4 4 12 17 17 7 12 8 6 4 14 12 18 2 5 3 8 13 18 22 27
2 2 5 10 9 6 13 14 21 32 28 33 24 25 23 22 20 20 25 19 15 4 8 4 4 5 8 10 9 5 17 20 15 7 17 17 23 21 16 7 8 12 15 17 24
7 6 9 4 9 15 16 12 17 12 21 27 23 26 24 23 22 23 22 21 21 14 7 9 5 10 19 27 27 22 18 17 21 20 20 20 22 25 10 8 13 13 10 18 24
6 6 7 18 22 17 15 19 25 26 21 25 22 21 19 25 23 21 21 19 14 7 6 6 9 12 11 17 23 25 21 20 24 23 22 23 26 19 17 23 13 12 19 25 27
17 18 9 12 16 15 17 18 22 22 24 24 20 14 16 21 40 33 29 22 16 11 12 7 4 3 6 18 18 12 18 21 22 23 19 20 21 21 20 17 18 22 26 34 29
Wind_Direction
266 267 270 276 282 293 304 311 316 321 325 330 330 333 335 330 327 319 287 253 303 301 323 340 316 283 283 272 263 273 272 269 262 235 146 138 153 50 83 103 79 65 101 140 140
260 265 271 277 284 288 294 301 309 316 319 326 328 328 331 328 322 308 254 307 309 305 307 328 317 313 294 263 260 242 268 268 344 140 132 147 163 153 127 121 112 101 110 130 138
262 265 270 274 279 285 291 297 307 314 318 322 326 327 331 332 320 132 270 310 317 302 297 297 295 290 283 272 255 252 258 289 329 6 107 156 182 161 171 183 162 143 139 142 146
260 262 266 271 274 282 288 297 302 308 313 319 323 326 329 341 308 319 297 302 312 313 305 295 284 277 266 265 240 251 267 286 300 59 301 171 195 167 65 51 146 142 142 144 145
261 264 270 271 275 280 283 287 294 298 304 313 318 322 330 313 293 309 307 311 310 309 294 293 287 278 274 272 275 235 267 275 264 74 269 270 200 176 105 108 130 140 144 148 148
268 274 273 273 274 279 285 287 292 294 301 308 314 315 326 292 297 302 301 302 296 279 286 280 287 305 309 283 288 271 303 285 233 229 237 249 227 142 138 143 144 149 150 151 153
258 268 271 274 281 284 288 289 288 291 298 304 311 325 301 266 288 292 279 283 273 273 280 294 284 287 295 290 289 265 266 261 252 247 224 207 241 195 162 165 163 162 160 158 159
267 273 270 272 275 289 297 300 297 291 293 302 307 320 272 291 280 274 274 271 265 264 264 277 280 282 270 275 285 262 253 253 248 225 232 187 232 209 163 171 174 172 167 165 166
281 284 285 289 290 293 294 296 298 296 300 296 300 304 286 293 267 278 256 259 276 263 253 265 279 265 269 245 262 248 249 248 243 243 200 207 232 169 162 175 179 180 177 173 169
270 274 279 278 282 288 293 292 297 292 292 286 274 282 255 278 258 221 236 265 264 259 258 251 247 248 232 243 240 241 237 232 255 242 196 204 217 163 177 184 185 184 185 182 178
265 265 266 272 277 282 280 305 295 282 240 231 243 245 282 273 288 243 241 264 265 253 253 232 235 239 248 242 247 267 285 288 291 294 191 226 217 179 184 192 194 189 190 188 184
259 257 257 262 263 272 282 253 281 295 293 260 261 256 258 265 273 259 242 240 245 249 259 245 243 252 264 275 267 257 264 266 272 275 200 221 232 242 180 197 200 194 193 189 183
256 253 252 255 267 270 263 250 264 292 268 274 256 250 251 248 248 253 245 249 240 261 256 250 266 264 260 287 264 258 263 270 270 269 199 238 257 252 185 195 206 207 198 192 186
253 245 236 242 291 324 259 287 257 271 274 265 254 248 240 242 252 250 241 244 250 240 251 253 263 260 263 250 261 265 258 263 260 267 259 193 258 235 221 189 197 206 201 193 186
252 243 224 210 202 248 308 219 219 263 284 317 83 108 197 195 272 225 234 232 241 249 238 247 250 248 255 252 242 255 283 292 293 257 271 257 263 256 264 201 189 200 204 194 185
241 236 242 229 216 186 256 181 169 231 245 251 141 185 223 244 230 253 214 240 247 248 248 253 250 263 247 251 243 258 258 265 265 263 254 247 256 251 245 241 183 193 199 192 182
240 232 232 210 204 221 239 156 223 235 254 250 243 193 229 243 226 239 252 246 231 230 240 245 246 249 247 258 263 226 222 248 222 227 251 240 237 240 262 285 186 183 187 187 184
245 239 228 219 227 215 198 195 222 235 235 283 309 318 251 272 283 247 229 253 242 249 260 241 249 236 232 216 230 227 214 217 212 237 250 249 239 254 108 82 123 187 185 178 178
247 251 242 226 224 228 194 217 230 231 253 272 280 278 277 265 272 301 298 269 250 233 241 263 262 261 225 223 208 237 219 238 267 278 281 267 282 289 113 138 161 190 168 170 173
242 254 244 234 225 216 226 235 243 247 259 278 272 285 293 289 284 270 261 288 272 293 250 237 266 275 298 210 196 222 251 230 220 255 250 257 259 260 202 184 171 199 160 165 172
226 238 221 205 213 204 224 228 247 251 266 261 261 270 274 274 279 300 305 306 337 284 312 293 225 217 324 223 208 206 233 245 250 223 245 255 254 97 35 140 166 192 177 168 177
235 224 210 192 201 205 230 232 253 262 265 256 259 271 271 281 280 275 263 258 29 352 331 360 301 242 234 255 243 263 248 231 215 245 259 243 254 348 96 100 173 185 179 180 184
238 249 257 214 227 231 239 242 247 260 258 260 264 252 258 268 269 274 281 293 271 198 353 9 335 328 261 236 235 241 254 253 258 198 241 250 258 81 12 57 155 164 179 181 180
243 266 240 231 233 249 266 260 263 253 253 260 268 263 262 259 267 275 273 266 262 137 231 270 218 248 285 280 321 325 325 309 294 239 251 246 259 264 269 220 166 170 181 181 175
231 237 233 181 236 236 239 249 265 283 286 272 251 253 253 266 269 265 265 271 269 164 200 185 226 268 266 267 277 284 281 260 264 265 258 258 251 262 266 260 166 167 200 190 195
214 222 250 266 261 249 233 245 254 267 249 265 269 258 274 290 248 259 270 279 282 286 290 232 239 233 246 257 272 278 266 268 264 264 259 278 284 270 260 263 234 223 239 246 231
234 248 280 264 261 258 258 255 258 266 270 276 286 290 283 280 274 268 254 262 255 260 271 212 268 251 240 250 264 269 262 260 260 262 256 262 259 273 273 265 239 218 227 257 203
Height
1534 1533 1533 1532 1531 1530 1529 1528 1527 1526 1523 1521 1520 1517 1514 1511 1508 1507 1505 1504 1503 1501 1500 1497 1496 1496 1494 1491 1488 1487 1488 1481 1465 1457 1461 1471 1477 1484 1489 1493 1500 1502 1500 1505 1513
1533 1532 1532 1532 1531 1529 1528 1527 1526 1524 1523 1520 1518 1516 1513 1509 1505 1502 1503 1502 1502 1500 1499 1499 1497 1495 1493 1488 1485 1483 1484 1472 1458 1450 1461 1471 1477 1485 1491 1498 1504 1506 1508 1510 1515
1531 1530 1531 1530 1529 1529 1526 1526 1525 1523 1521 1519 1517 1515 1513 1508 1503 1500 1501 1501 1500 1499 1498 1498 1497 1495 1491 1486 1482 1479 1480 1470 1465 1466 1463 1470 1476 1482 1488 1493 1499 1504 1508 1513 1516
1529 1528 1529 1529 1527 1528 1524 1525 1523 1522 1521 1518 1516 1514 1511 1509 1506 1501 1500 1499 1498 1497 1497 1496 1495 1492 1487 1483 1478 1478 1475 1472 1471 1471 1471 1470 1475 1480 1487 1486 1493 1502 1507 1513 1517
1526 1526 1528 1527 1526 1526 1523 1522 1521 1520 1519 1516 1515 1513 1510 1510 1505 1499 1498 1497 1497 1496 1497 1495 1494 1490 1485 1481 1476 1474 1476 1473 1474 1476 1478 1475 1474 1479 1491 1497 1499 1503 1507 1512 1516
1525 1522 1524 1526 1525 1523 1523 1520 1520 1518 1517 1515 1513 1511 1512 1509 1502 1501 1497 1497 1496 1496 1495 1494 1492 1489 1487 1483 1480 1477 1477 1473 1473 1475 1479 1477 1477 1480 1493 1498 1502 1504 1507 1511 1515
1522 1521 1521 1522 1522 1520 1519 1518 1518 1517 1515 1514 1512 1510 1508 1501 1498 1497 1496 1495 1495 1495 1493 1492 1492 1492 1486 1482 1479 1478 1480 1475 1472 1472 1474 1478 1479 1480 1488 1497 1501 1504 1507 1510 1514
1518 1518 1519 1519 1520 1519 1517 1516 1515 1514 1512 1512 1511 1509 1501 1496 1495 1493 1492 1492 1492 1492 1492 1491 1491 1490 1488 1483 1480 1479 1477 1479 1467 1467 1468 1472 1480 1471 1482 1491 1497 1502 1505 1509 1513
1516 1515 1516 1516 1517 1516 1515 1514 1513 1511 1509 1509 1509 1508 1498 1493 1491 1489 1490 1491 1490 1490 1490 1490 1490 1487 1484 1482 1482 1473 1479 1469 1462 1453 1459 1464 1473 1468 1478 1486 1492 1498 1502 1506 1510
1512 1512 1515 1514 1513 1512 1511 1512 1510 1507 1506 1505 1505 1510 1495 1490 1488 1487 1489 1490 1489 1488 1489 1489 1487 1483 1480 1480 1485 1472 1466 1461 1458 1447 1452 1457 1465 1472 1478 1482 1486 1493 1498 1502 1506
1508 1508 1510 1511 1509 1510 1510 1511 1510 1505 1501 1497 1494 1492 1487 1488 1487 1487 1488 1488 1487 1486 1484 1480 1483 1481 1474 1469 1467 1466 1461 1459 1448 1441 1445 1454 1454 1461 1470 1476 1481 1486 1493 1499 1503
1504 1506 1507 1508 1507 1507 1508 1509 1509 1509 1498 1494 1490 1487 1485 1486 1484 1483 1486 1485 1483 1481 1477 1476 1475 1469 1466 1463 1461 1460 1463 1461 1450 1446 1450 1451 1452 1448 1458 1465 1471 1475 1483 1490 1497
1503 1504 1505 1505 1505 1504 1504 1506 1506 1507 1499 1486 1481 1476 1473 1481 1476 1474 1483 1479 1477 1477 1472 1473 1463 1461 1464 1465 1463 1460 1465 1462 1458 1446 1445 1451 1452 1448 1450 1459 1464 1469 1474 1482 1490
1501 1501 1503 1504 1506 1502 1504 1504 1502 1505 1494 1470 1462 1453 1465 1471 1466 1466 1471 1475 1470 1469 1467 1462 1459 1458 1456 1460 1463 1466 1456 1455 1454 1453 1455 1444 1461 1440 1437 1446 1454 1461 1467 1473 1481
1499 1501 1501 1501 1502 1504 1505 1505 1503 1504 1502 1451 1451 1453 1455 1460 1457 1453 1459 1464 1461 1462 1464 1455 1454 1455 1454 1450 1453 1456 1453 1456 1451 1452 1452 1444 1448 1433 1426 1433 1443 1451 1459 1466 1474
1496 1498 1500 1501 1500 1502 1501 1502 1503 1504 1486 1453 1449 1453 1457 1455 1455 1454 1458 1460 1460 1458 1454 1447 1448 1446 1443 1445 1445 1449 1450 1454 1456 1457 1458 1448 1446 1426 1423 1414 1427 1441 1452 1462 1470
1493 1494 1497 1499 1501 1501 1500 1502 1506 1491 1460 1451 1446 1448 1450 1450 1450 1453 1454 1452 1456 1460 1452 1446 1440 1440 1442 1448 1444 1447 1454 1471 1468 1469 1454 1435 1435 1422 1413 1409 1413 1430 1444 1455 1465
1490 1490 1493 1495 1499 1498 1499 1502 1506 1473 1471 1447 1443 1451 1455 1454 1451 1445 1449 1449 1443 1442 1444 1442 1446 1438 1434 1437 1445 1440 1448 1456 1467 1456 1440 1417 1428 1418 1406 1414 1419 1426 1433 1446 1457
1487 1489 1489 1492 1495 1498 1500 1495 1476 1471 1470 1465 1461 1460 1454 1451 1451 1449 1446 1440 1440 1437 1448 1445 1430 1418 1418 1424 1436 1440 1443 1439 1450 1439 1449 1432 1422 1413 1415 1419 1425 1426 1430 1440 1451
1486 1487 1486 1488 1492 1495 1498 1485 1465 1467 1469 1472 1469 1462 1463 1458 1454 1449 1452 1443 1442 1438 1433 1434 1444 1426 1419 1413 1423 1432 1431 1444 1444 1463 1460 1433 1429 1422 1416 1418 1428 1432 1433 1440 1448
1485 1485 1481 1484 1487 1492 1487 1479 1468 1469 1472 1472 1468 1467 1463 1461 1460 1466 1458 1452 1448 1444 1440 1431 1437 1431 1430 1422 1421 1430 1433 1430 1429 1437 1447 1444 1427 1411 1417 1413 1425 1434 1438 1443 1449
1482 1481 1477 1480 1485 1482 1480 1471 1473 1466 1469 1467 1470 1469 1469 1465 1463 1462 1460 1458 1459 1460 1456 1452 1456 1435 1424 1422 1421 1421 1424 1429 1448 1445 1437 1438 1425 1405 1416 1420 1424 1430 1434 1440 1448
1479 1477 1476 1478 1477 1478 1472 1470 1470 1468 1465 1466 1463 1461 1462 1461 1464 1458 1453 1450 1453 1463 1463 1463 1460 1449 1433 1426 1424 1430 1429 1429 1431 1440 1443 1445 1423 1412 1415 1422 1424 1428 1432 1437 1444
1480 1477 1474 1474 1475 1477 1473 1470 1467 1462 1460 1463 1459 1460 1459 1458 1455 1454 1453 1452 1454 1462 1465 1468 1468 1463 1452 1432 1435 1442 1452 1442 1435 1445 1435 1432 1423 1415 1421 1423 1424 1429 1433 1437 1442
1477 1472 1467 1469 1471 1470 1471 1469 1466 1466 1459 1458 1455 1454 1456 1456 1455 1454 1451 1448 1445 1452 1463 1464 1461 1458 1452 1441 1434 1434 1437 1448 1444 1442 1434 1425 1421 1405 1415 1416 1418 1423 1431 1436 1440
1472 1470 1468 1463 1460 1459 1461 1460 1459 1455 1458 1458 1452 1458 1459 1457 1448 1451 1453 1450 1446 1448 1458 1455 1446 1444 1449 1443 1437 1431 1431 1431 1430 1425 1421 1431 1417 1403 1407 1412 1417 1419 1426 1428 1431
1466 1467 1467 1461 1459 1457 1453 1451 1452 1452 1450 1450 1450 1454 1456 1456 1449 1441 1441 1442 1446 1448 1450 1456 1453 1443 1436 1430 1429 1432 1425 1422 1416 1411 1409 1411 1404 1398 1402 1404 1406 1412 1413 1415 1415